Stündliche Wetter Czyste

Heute, 28 Oktober, Mittwoch

Zeit Temperatur Niederschläge Wind Luftdruck Luftfeuchtigkeit
00:00 +12°C° 0.1 mm 1 m/S 750 mmHg 86%
01:00 +12°C° 0.1 mm 1 m/S 750 mmHg 87%
02:00 +12°C° 0 mm 1 m/S 750 mmHg 88%
03:00 +12°C° 0 mm 1 m/S 750 mmHg 88%
04:00 +12°C° 0 mm 1 m/S 750 mmHg 88%
05:00 +12°C° 0 mm 1 m/S 750 mmHg 88%
06:00 +12°C° 0 mm 1 m/S 751 mmHg 87%
07:00 +12°C° 0 mm 2 m/S 751 mmHg 87%
08:00 +13°C° 0 mm 2 m/S 751 mmHg 83%
09:00 +12°C° 0 mm 3 m/S 751 mmHg 80%
10:00 +13°C° 0 mm 3 m/S 751 mmHg 76%
11:00 +13°C° 0 mm 3 m/S 751 mmHg 76%
12:00 +14°C° 0 mm 3 m/S 750 mmHg 76%
13:00 +14°C° 0 mm 3 m/S 750 mmHg 77%
14:00 +14°C° 0 mm 3 m/S 750 mmHg 79%
15:00 +13°C° 0 mm 3 m/S 750 mmHg 80%
16:00 +14°C° 0 mm 2 m/S 750 mmHg 82%
17:00 +13°C° 0 mm 2 m/S 750 mmHg 83%
18:00 +12°C° 0 mm 3 m/S 750 mmHg 84%
19:00 +11°C° 0 mm 3 m/S 750 mmHg 85%
20:00 +11°C° 0 mm 3 m/S 751 mmHg 82%
21:00 +11°C° 0 mm 3 m/S 751 mmHg 78%
22:00 +11°C° 0 mm 3 m/S 751 mmHg 75%
23:00 +11°C° 0 mm 3 m/S 751 mmHg 74%

Morgen, 29 Oktober, Donnerstag

Zeit Temperatur Niederschläge Wind Luftdruck Luftfeuchtigkeit
00:00 +10°C° 0 mm 3 m/S 751 mmHg 74%
01:00 +10°C° 0 mm 3 m/S 751 mmHg 74%
02:00 +9°C° 0 mm 3 m/S 751 mmHg 77%
03:00 +9°C° 0 mm 3 m/S 751 mmHg 80%
04:00 +8°C° 0 mm 3 m/S 751 mmHg 83%
05:00 +8°C° 0 mm 3 m/S 751 mmHg 83%
06:00 +9°C° 0 mm 3 m/S 751 mmHg 84%
07:00 +9°C° 0 mm 3 m/S 751 mmHg 84%
08:00 +10°C° 0 mm 3 m/S 751 mmHg 78%
09:00 +11°C° 0 mm 4 m/S 751 mmHg 73%
10:00 +12°C° 0 mm 4 m/S 751 mmHg 67%
11:00 +12°C° 0 mm 4 m/S 751 mmHg 65%
12:00 +13°C° 0 mm 4 m/S 750 mmHg 63%
13:00 +13°C° 0 mm 5 m/S 750 mmHg 60%
14:00 +12°C° 0 mm 4 m/S 750 mmHg 65%
15:00 +12°C° 0 mm 4 m/S 750 mmHg 70%
16:00 +11°C° 0 mm 4 m/S 750 mmHg 75%
17:00 +11°C° 0.5 mm 4 m/S 750 mmHg 79%
18:00 +10°C° 0.5 mm 4 m/S 750 mmHg 82%
19:00 +9°C° 0.5 mm 5 m/S 750 mmHg 86%
20:00 +9°C° 0.5 mm 5 m/S 751 mmHg 84%
21:00 +8°C° 0.5 mm 4 m/S 751 mmHg 83%
22:00 +8°C° 0.5 mm 4 m/S 751 mmHg 81%
23:00 +7°C° 0 mm 4 m/S 752 mmHg 82%

übermorgen, 30 Oktober, Freitag

Zeit Temperatur Niederschläge Wind Luftdruck Luftfeuchtigkeit
00:00 +7°C° 0 mm 4 m/S 752 mmHg 84%
01:00 +6°C° 0 mm 4 m/S 752 mmHg 86%
02:00 +6°C° 0 mm 4 m/S 753 mmHg 87%
03:00 +5°C° 0 mm 4 m/S 753 mmHg 88%
04:00 +5°C° 0 mm 4 m/S 753 mmHg 89%
05:00 +5°C° 0 mm 4 m/S 753 mmHg 89%
06:00 +5°C° 0 mm 4 m/S 754 mmHg 90%
07:00 +5°C° 0 mm 4 m/S 754 mmHg 91%
08:00 +5°C° 0 mm 4 m/S 754 mmHg 88%
09:00 +6°C° 0 mm 4 m/S 754 mmHg 84%
10:00 +7°C° 0 mm 4 m/S 754 mmHg 81%
11:00 +7°C° 0 mm 4 m/S 754 mmHg 77%
12:00 +9°C° 0 mm 3 m/S 754 mmHg 73%
13:00 +10°C° 0 mm 3 m/S 753 mmHg 69%
14:00 +9°C° 0 mm 3 m/S 753 mmHg 71%
15:00 +9°C° 0 mm 2 m/S 753 mmHg 72%
16:00 +9°C° 0 mm 2 m/S 752 mmHg 74%
17:00 +8°C° 0.3 mm 2 m/S 752 mmHg 76%
18:00 +8°C° 0.3 mm 2 m/S 752 mmHg 78%
19:00 +7°C° 0.3 mm 2 m/S 752 mmHg 81%
20:00 +7°C° 0.1 mm 2 m/S 752 mmHg 81%
21:00 +7°C° 0.1 mm 2 m/S 752 mmHg 82%
22:00 +7°C° 0.1 mm 2 m/S 753 mmHg 83%
23:00 +6°C° 0 mm 2 m/S 753 mmHg 84%

31 Oktober, Samstag

Zeit Temperatur Niederschläge Wind Luftdruck Luftfeuchtigkeit
00:00 +6°C° 0 mm 2 m/S 754 mmHg 86%
01:00 +6°C° 0 mm 1 m/S 754 mmHg 87%
02:00 +6°C° 0 mm 1 m/S 755 mmHg 88%
03:00 +6°C° 0 mm 1 m/S 755 mmHg 89%
04:00 +5°C° 0 mm 2 m/S 756 mmHg 90%
05:00 +6°C° 0 mm 1 m/S 756 mmHg 91%
06:00 +5°C° 0 mm 1 m/S 757 mmHg 91%
07:00 +5°C° 0 mm 1 m/S 757 mmHg 92%
08:00 +7°C° 0 mm 1 m/S 758 mmHg 86%
09:00 +7°C° 0 mm 2 m/S 758 mmHg 81%
10:00 +8°C° 0 mm 2 m/S 759 mmHg 75%
11:00 +9°C° 0 mm 2 m/S 759 mmHg 72%
12:00 +10°C° 0 mm 2 m/S 759 mmHg 70%
13:00 +12°C° 0 mm 2 m/S 759 mmHg 67%
14:00 +10°C° 0 mm 2 m/S 759 mmHg 70%
15:00 +10°C° 0 mm 1 m/S 759 mmHg 74%
16:00 +9°C° 0 mm 1 m/S 760 mmHg 78%
17:00 +9°C° 0 mm 1 m/S 760 mmHg 80%
18:00 +8°C° 0 mm 1 m/S 760 mmHg 83%
19:00 +8°C° 0 mm 1 m/S 760 mmHg 86%
20:00 +7°C° 0 mm 1 m/S 760 mmHg 87%
21:00 +7°C° 0 mm 1 m/S 760 mmHg 88%
22:00 +7°C° 0 mm 1 m/S 760 mmHg 89%
23:00 +7°C° 0 mm 1 m/S 760 mmHg 89%

1 November, Sonntag

Zeit Temperatur Niederschläge Wind Luftdruck Luftfeuchtigkeit
00:00 +6°C° 0 mm 1 m/S 761 mmHg 90%
01:00 +6°C° 0 mm 1 m/S 761 mmHg 90%
02:00 +5°C° 0 mm 2 m/S 760 mmHg 90%
03:00 +5°C° 0 mm 2 m/S 760 mmHg 91%
04:00 +5°C° 0 mm 2 m/S 760 mmHg 91%
05:00 +5°C° 0 mm 2 m/S 760 mmHg 91%
06:00 +5°C° 0 mm 2 m/S 760 mmHg 91%
07:00 +5°C° 0 mm 2 m/S 760 mmHg 91%
08:00 +5°C° 0 mm 3 m/S 760 mmHg 86%
09:00 +7°C° 0 mm 3 m/S 760 mmHg 80%
10:00 +8°C° 0 mm 4 m/S 760 mmHg 75%
11:00 +10°C° 0 mm 4 m/S 759 mmHg 71%
12:00 +11°C° 0 mm 4 m/S 759 mmHg 68%
13:00 +12°C° 0 mm 4 m/S 759 mmHg 65%
14:00 +11°C° 0 mm 4 m/S 758 mmHg 69%
15:00 +10°C° 0 mm 4 m/S 758 mmHg 73%
16:00 +9°C° 0 mm 3 m/S 758 mmHg 77%
17:00 +8°C° 0 mm 4 m/S 758 mmHg 79%
18:00 +8°C° 0 mm 4 m/S 758 mmHg 81%
19:00 +7°C° 0 mm 4 m/S 758 mmHg 83%
20:00 +7°C° 0 mm 4 m/S 758 mmHg 84%
21:00 +7°C° 0 mm 4 m/S 758 mmHg 85%
22:00 +6°C° 0 mm 4 m/S 758 mmHg 85%
23:00 +6°C° 0 mm 4 m/S 757 mmHg 86%

2 November, Montag

Zeit Temperatur Niederschläge Wind Luftdruck Luftfeuchtigkeit
00:00 +6°C° 0 mm 4 m/S 757 mmHg 86%
01:00 +6°C° 0 mm 4 m/S 757 mmHg 86%
02:00 +6°C° 0 mm 4 m/S 757 mmHg 85%
03:00 +6°C° 0 mm 4 m/S 757 mmHg 83%
04:00 +6°C° 0 mm 4 m/S 757 mmHg 81%
05:00 +6°C° 0 mm 4 m/S 757 mmHg 81%
06:00 +6°C° 0 mm 4 m/S 757 mmHg 80%
07:00 +7°C° 0 mm 3 m/S 757 mmHg 80%
08:00 +7°C° 0 mm 4 m/S 757 mmHg 75%
09:00 +8°C° 0 mm 4 m/S 757 mmHg 70%
10:00 +10°C° 0 mm 4 m/S 757 mmHg 65%
11:00 +11°C° 0 mm 4 m/S 757 mmHg 63%
12:00 +12°C° 0 mm 4 m/S 757 mmHg 61%
13:00 +13°C° 0 mm 4 m/S 757 mmHg 59%
14:00 +12°C° 0 mm 4 m/S 757 mmHg 62%
15:00 +12°C° 0 mm 3 m/S 757 mmHg 65%
16:00 +11°C° 0 mm 3 m/S 756 mmHg 68%
17:00 +11°C° 0 mm 3 m/S 757 mmHg 68%
18:00 +11°C° 0 mm 3 m/S 757 mmHg 69%
19:00 +10°C° 0 mm 4 m/S 757 mmHg 70%
20:00 +10°C° 0 mm 3 m/S 757 mmHg 70%
21:00 +10°C° 0 mm 3 m/S 757 mmHg 70%
22:00 +10°C° 0 mm 3 m/S 757 mmHg 70%
23:00 +9°C° 0 mm 3 m/S 757 mmHg 70%
Mehr zeigen

Wir brauchen deine Erlaubnis

Meteoprog und unser Service Anbieter werden persönliche Daten aufbewahren, so wie Cookies, Geräte Bezeichnung oder ähnliche Technologien von deinem Gerät und Prozess, so wie Persönliche Daten Inhalte und Werbungen, genauso wie social Media und den Verkehr zu analysieren.

  • Aufbewahrung und/oder Zugang zu deiner Geräte Informationen.

    Cookies, Geräte Bezeichnung oder andere Informationen, können aufbewahrt oder Zugang zu deinem Gerät erhalten, für den Grund, der oben angegeben wird.

  • Personalisierte Werbung und Inhalte, Messungen, Einblick in das Publikum und Produkt Entwicklung.

    Werbungen und Inhalte können personalisiert werden, basierend auf ein Profil. Mehr Daten können besser personalisierte Werbungen und Inhalte hinzufügen. Werbung und Inhalte können gezeigt und gemessen werden. Einblicke über das Publikum, welche die Werbung gesehen haben und den Inhalt, können abgeleitet werden. So wie Daten können genutzt werden, um es zu verbessern oder die Benutzer Erfahrung zu verbessern das System und die Software.

Wenn du “Ich stimme zu” klickst, erlaubst du uns, die Cookies zu benutzen die Geräte Bezeichnung, den Web oder ähnliche Technologien zu benutzen. Deine Settings, können in deinem Gerät bei deinem Browser geändert werden.

Für den bestimmten Zweck, berechtigten Interessen beruhen darauf, mehr als auf den Inhalt. Du kannst mehr darüber in unseren Privaten und Cookie Politik lesen.